Location: Newark
(33.2833°N, 8.3333°W)
Time: 05:41:16
(UTC+00:00)

Hubble Space Telescope - Pass Details

Date: 19 September 2019
Orbit: 536 x 540 km, 28.5° (Epoch: 21 October)

Event Time Altitude Azimuth Distance (km) Brightness Sun altitude
Exits shadow 04:45:31 39° 194° (SSW) 799 1.4 -20.1°
Maximum altitude 04:45:43 40° 186° (S) 795 1.4 -20.1°
Drops below altitude 10° 04:49:35 10° 116° (ESE) 1,779 4.1 -19.3°
Sets 04:51:56 0° 108° (ESE) 2,670 5.3 -18.8°
